Retour au catalogue

DELTA 1 DEB

ActifSSO
NORAD 9040·DEBRIS·🇺🇸 United States

Lancé Jan 22, 1975 depuis Vandenberg Space Force Base

Loading…

Prochains Passages (prochaines 24 heures)

TLE

FraisSource: Space-Track

Époque: Sep 13, 2026, 17:37 UTC

1 09040U 75004DE  26256.73469173  .00000107  00000-0  38601-4 0  9990
2 09040  97.9277 319.3528 0047257  64.3388 296.2677 14.48892480626184

Suivez DELTA 1 DEB en temps réel avec AllMySat

Download on the App Store